Location: Unspecified
(0.0000°N, 0.0000°E)
Time: 06:06:01
(UTC+00:00)

Transit 4A - Pass Details

Date: 08 October 2020
Orbit: 862 x 982 km, 66.8° (Epoch: 28 October)

Event Time Altitude Azimuth Distance (km) Brightness Sun altitude
Rises 19:02:03 0° 225° (SW) 3,480 11.7 -18.6°
Reaches altitude 10° 19:04:59 10° 239° (WSW) 2,556 11.2 -19.3°
Maximum altitude 19:09:36 24° 290° (WNW) 1,794 10.1 -20.4°
Drops below altitude 10° 19:14:20 10° 342° (NNW) 2,612 10.4 -21.6°
Sets 19:17:24 0° 356° (N) 3,575 10.9 -22.4°
